This is the latest recevied weather packets stored in our database for station/object SP5IZJ-2. If no packets are shown the sender has not sent any weather packets the latest 10 day(s).
| Time | Temp. | Humidity | Pressure | Rain* | Wind** | Luminosity | Snow |
|---|---|---|---|---|---|---|---|
| 1777880617 | 22.78° C | 35% | 1005.9 hPa | 0 mm | - | - | - |
| 1777879357 | 21.67° C | 36% | 1005.6 hPa | 0 mm | - | - | - |
| 1777878518 | 21.11° C | 37% | 1005.8 hPa | 0 mm | - | - | - |
| 1777878098 | 21.11° C | 37% | 1005.6 hPa | 0 mm | - | - | - |
| 1777877678 | 20.56° C | 40% | 1005.5 hPa | 0 mm | - | - | - |
| 1777876838 | 18.33° C | 41% | 1005.8 hPa | 0 mm | - | - | - |
| 1777876418 | 18.33° C | 42% | 1005.8 hPa | 0 mm | - | - | - |
| 1777876001 | 18.33° C | 41% | 1005.6 hPa | 0 mm | - | - | - |
| 1777875163 | 18.33° C | 41% | 1005.6 hPa | 0 mm | - | - | - |
| 1777874739 | 18.33° C | 41% | 1005.6 hPa | 0 mm | - | - | - |
| 1777873899 | 18.33° C | 42% | 1005.6 hPa | 0 mm | - | - | - |
| 1777873480 | 17.78° C | 42% | 1005.5 hPa | 0 mm | - | - | - |
| 1777870541 | 15.56° C | 47% | 1005.7 hPa | 0 mm | - | - | - |
| 1777870121 | 15.56° C | 47% | 1005.6 hPa | 0 mm | - | - | - |
| 1777869281 | 15° C | 50% | 1005.6 hPa | 0 mm | - | - | - |
| 1777868022 | 12.22° C | 58% | 1005.5 hPa | 0 mm | - | - | - |
| 1777867602 | 11.11° C | 58% | 1005.6 hPa | 0 mm | - | - | - |
| 1777865923 | 10.56° C | 60% | 1005.6 hPa | 0 mm | - | - | - |
| 1777865503 | 10° C | 61% | 1005.7 hPa | 0 mm | - | - | - |
| 1777864663 | 8.89° C | 63% | 1005.7 hPa | 0 mm | - | - | - |
| 1777863824 | 8.33° C | 64% | 1005.7 hPa | 0 mm | - | - | - |
| 1777862144 | 8.33° C | 62% | 1005.7 hPa | 0 mm | - | - | - |
| 1777859206 | 10° C | 60% | 1005.9 hPa | 0 mm | - | - | - |
| 1777858372 | 10.56° C | 61% | 1005.9 hPa | 0 mm | - | - | - |
| 1777857106 | 10° C | 60% | 1005.8 hPa | 0 mm | - | - | - |
* Rain latest hour (hover to see other rain measurements)
** Current wind speed in m/s (hover to see current wind gust speed)